Location: Unspecified
(0.0000°N, 0.0000°E)
Time: 10:06:02
(UTC+00:00)

Envisat - Pass Details

Date: 24 January 2021
Orbit: 764 x 766 km, 98.1° (Epoch: 25 February)

Event Time Altitude Azimuth Distance (km) Brightness Sun altitude
Rises 05:23:21 0° 10° (N) 3,213 6.1 -11.5°
Reaches altitude 10° 05:25:38 10° 10° (N) 2,289 5.4 -11.0°
Maximum altitude 05:30:41 83° 282° (WNW) 772 3.0 -9.8°
Drops below altitude 10° 05:35:46 10° 194° (SSW) 2,299 5.6 -8.6°
Sets 05:38:04 0° 193° (SSW) 3,227 6.3 -8.0°
